Regional Weather Roundup
Issued by NWS

Home | Current Version | Previous Version | Text Only | Print | Product List | Glossary Off
Versions: 1 2 3 4 5 6 7 8 9 10 11 12 13 14 15 16 17 18 19 20 21 22 23 24 25 26 27 28 29 30 31 32 33 34 35 36 37 38 39 40 41 42 43 44 45 46 47 48 49 50

000
ASUS45 KCYS 061310
RWRWY

WYOMING REGIONAL WEATHER ROUNDUP
NATIONAL WEATHER SERVICE CHEYENNE WY
700 AM MDT MON JUL 06 2015

NOTE:  "FAIR" INDICATES FEW OR NO CLOUDS BELOW 12,000 FEET
WITH NO SIGNIFICANT WEATHER AND/OR OBSTRUCTIONS TO VISIBILITY.

WYZ001-061400-
YELLOWSTONE NATIONAL PARK

CITY           SKY/WX    TMP DP  RH WIND       PRES   REMARKS
LK YELLOWSTONE   N/A     46  45  96 CALM      30.38R
W YELLOWSTONE  NOT AVBL

$$
WYZ002>013-054>058-071-098>099-061400-
NORTHERN WYOMING

CITY           SKY/WX    TMP DP  RH WIND       PRES   REMARKS
JACKSON        FAIR      52  50  93 NW6       30.30R
CODY           CLOUDY    50  48  93 NE7       30.29S
GREYBULL       NOT AVBL
WORLAND        NOT AVBL
SHERIDAN       LGT RAIN  53  52  96 N6        30.27S FOG
BUFFALO        NOT AVBL
GILLETTE       CLOUDY    53  50  89 N9        30.26R
NEWCASTLE      PTSUNNY   55  50  82 N10       30.23R HAZE

$$
WYZ014>020-022>026-101>103-061400-
CENTRAL WYOMING

CITY           SKY/WX    TMP DP  RH WIND       PRES   REMARKS
BIG PINEY      NOT AVBL
PINEDALE       NOT AVBL
DUBOIS         LGT RAIN  50  46  87 CALM      30.31R
LANDER         NOT AVBL
RIVERTON       NOT AVBL
CASPER         NOT AVBL
DOUGLAS        NOT AVBL

$$
WYZ021-027>030-104>119-061400-
SOUTHERN WYOMING

CITY           SKY/WX    TMP DP  RH WIND       PRES   REMARKS
EVANSTON       NOT AVBL
KEMMERER       FAIR      54  46  76 N10G21    30.32R
FORT BRIDGER   CLOUDY    55  55 100 CALM      30.33R FOG
ROCK SPRINGS   NOT AVBL
DIXON          CLOUDY    56  53  88 E3        30.29S
RAWLINS        NOT AVBL
SARATOGA       CLOUDY    54  52  94 NW7       30.30R
LARAMIE        NOT AVBL
CHEYENNE       NOT AVBL
TORRINGTON     NOT AVBL
PINE BLUFFS    CLOUDY    55  55 100 N15       30.21R

$$



USA.gov is the U.S. government's official web portal to all federal, state and local government web resources and services.